SKY MUSTER 1 (NBN1A) 1 40940U 15054A 21061.92499543 -.00000288 00000-0 00000-0 0 9996 2 40940 0.0183 166.4910 0001851 181.5362 286.1203 1.00268682 19880 ARSAT 2 1 40941U 15054B 21062.16015373 -.00000233 00000-0 00000+0 0 9998 2 40941 0.0041 185.9983 0001669 155.1198 156.6530 1.00269358 19943 ARIANE 5 R/B 1 40942U 15054C 21061.21260111 .00002145 00000-0 34470-3 0 9991 2 40942 6.7813 342.3927 7114927 117.3247 329.9323 2.50495766 47525